QPF
0.01 0.01 0.01 0.01 0.01 0.01 0.02 0.02 0.02 0.05 0.05 0.06 0.08 0.08 0.07 0.12 0.16 0.10 0.05 0.03 0.02 0.03 0.04 0.03 0.04 0.04 0.03 0.03 0.03 0.04 0.03 0.03 0.03 0.03 0.03 0.02 0.01 0.01 0.01 0.02 0.01 0.01 0.02
0.01 0.00 0.00 0.00 0.00 0.01 0.02 0.02 0.02 0.02 0.03 0.04 0.06 0.09 0.07 0.06 0.06 0.05 0.03 0.02 0.02 0.03 0.03 0.04 0.04 0.03 0.03 0.03 0.03 0.03 0.03 0.02 0.03 0.03 0.04 0.03 0.02 0.01 0.01 0.01 0.02 0.02 0.03
0.00 0.00 0.00 0.00 0.00 0.01 0.01 0.01 0.01 0.03 0.04 0.03 0.03 0.06 0.08 0.06 0.04 0.03 0.02 0.02 0.02 0.03 0.03 0.03 0.04 0.03 0.02 0.02 0.03 0.03 0.03 0.02 0.02 0.02 0.03 0.03 0.02 0.02 0.02 0.02 0.02 0.03 0.05
0.00 0.00 0.01 0.01 0.00 0.01 0.01 0.01 0.02 0.03 0.05 0.04 0.03 0.04 0.05 0.04 0.03 0.02 0.02 0.02 0.02 0.03 0.03 0.03 0.03 0.03 0.02 0.02 0.02 0.03 0.03 0.03 0.02 0.02 0.02 0.02 0.03 0.03 0.03 0.02 0.03 0.04 0.05
0.00 0.00 0.01 0.01 0.01 0.01 0.01 0.01 0.02 0.03 0.06 0.06 0.04 0.05 0.04 0.03 0.03 0.03 0.02 0.02 0.02 0.02 0.03 0.03 0.03 0.03 0.03 0.02 0.02 0.02 0.03 0.02 0.02 0.01 0.02 0.03 0.03 0.03 0.03 0.03 0.04 0.04 0.04
0.00 0.00 0.01 0.01 0.01 0.01 0.02 0.02 0.03 0.03 0.04 0.04 0.04 0.04 0.04 0.04 0.04 0.04 0.04 0.03 0.02 0.02 0.02 0.02 0.02 0.02 0.02 0.02 0.02 0.02 0.02 0.02 0.02 0.03 0.04 0.04 0.04 0.03 0.03 0.03 0.04 0.04 0.04
0.00 0.00 0.01 0.01 0.01 0.01 0.01 0.02 0.04 0.04 0.03 0.03 0.03 0.03 0.04 0.04 0.05 0.04 0.03 0.02 0.01 0.01 0.02 0.02 0.02 0.02 0.02 0.02 0.02 0.02 0.01 0.02 0.02 0.03 0.04 0.04 0.05 0.04 0.04 0.04 0.05 0.05 0.04
0.01 0.00 0.01 0.01 0.01 0.01 0.02 0.03 0.03 0.03 0.03 0.03 0.05 0.05 0.05 0.05 0.04 0.03 0.02 0.02 0.01 0.01 0.02 0.02 0.03 0.03 0.03 0.03 0.03 0.02 0.02 0.01 0.02 0.02 0.03 0.04 0.04 0.05 0.06 0.06 0.07 0.06 0.05
0.01 0.01 0.01 0.01 0.01 0.01 0.02 0.03 0.03 0.03 0.03 0.05 0.05 0.05 0.05 0.05 0.04 0.03 0.02 0.01 0.01 0.02 0.03 0.03 0.03 0.04 0.04 0.05 0.05 0.04 0.03 0.03 0.03 0.03 0.03 0.05 0.06 0.06 0.05 0.05 0.04 0.05 0.04
0.02 0.02 0.02 0.02 0.01 0.01 0.02 0.02 0.03 0.04 0.04 0.05 0.04 0.03 0.03 0.03 0.02 0.02 0.02 0.02 0.02 0.03 0.03 0.03 0.04 0.05 0.05 0.06 0.06 0.05 0.04 0.04 0.04 0.04 0.04 0.05 0.04 0.04 0.04 0.03 0.04 0.05 0.05
0.01 0.02 0.02 0.02 0.01 0.01 0.02 0.02 0.02 0.02 0.03 0.03 0.04 0.03 0.03 0.02 0.02 0.01 0.01 0.02 0.03 0.04 0.04 0.04 0.05 0.05 0.05 0.05 0.05 0.05 0.05 0.06 0.07 0.06 0.06 0.05 0.02 0.02 0.02 0.03 0.04 0.05 0.07
0.01 0.02 0.01 0.01 0.02 0.02 0.02 0.03 0.04 0.03 0.02 0.02 0.02 0.02 0.03 0.03 0.02 0.02 0.02 0.02 0.04 0.05 0.04 0.04 0.04 0.04 0.04 0.04 0.04 0.04 0.05 0.07 0.07 0.08 0.07 0.05 0.03 0.02 0.03 0.04 0.04 0.04 0.05
0.02 0.02 0.02 0.03 0.04 0.04 0.04 0.07 0.07 0.03 0.01 0.03 0.03 0.03 0.03 0.03 0.03 0.02 0.02 0.02 0.03 0.03 0.03 0.03 0.04 0.03 0.03 0.03 0.03 0.03 0.04 0.04 0.04 0.05 0.04 0.03 0.02 0.02 0.02 0.03 0.04 0.04 0.04
0.01 0.02 0.03 0.04 0.03 0.04 0.06 0.07 0.05 0.02 0.02 0.03 0.04 0.04 0.03 0.03 0.03 0.02 0.02 0.02 0.02 0.02 0.03 0.04 0.04 0.04 0.02 0.02 0.02 0.02 0.03 0.03 0.03 0.03 0.03 0.02 0.02 0.02 0.02 0.03 0.04 0.06 0.06
0.01 0.02 0.02 0.02 0.02 0.03 0.04 0.04 0.03 0.02 0.02 0.03 0.03 0.03 0.04 0.04 0.03 0.03 0.03 0.03 0.03 0.03 0.03 0.04 0.04 0.03 0.02 0.01 0.02 0.02 0.02 0.02 0.02 0.02 0.02 0.02 0.02 0.02 0.03 0.03 0.04 0.05 0.06
0.02 0.02 0.02 0.02 0.02 0.02 0.02 0.02 0.02 0.03 0.03 0.03 0.03 0.04 0.04 0.05 0.03 0.03 0.03 0.03 0.03 0.04 0.03 0.04 0.04 0.03 0.01 0.01 0.01 0.02 0.02 0.02 0.02 0.02 0.02 0.03 0.03 0.02 0.02 0.02 0.03 0.04 0.05
0.02 0.02 0.02 0.02 0.02 0.02 0.02 0.02 0.02 0.03 0.03 0.03 0.04 0.06 0.06 0.04 0.04 0.03 0.03 0.03 0.04 0.04 0.04 0.04 0.04 0.04 0.04 0.03 0.01 0.01 0.01 0.02 0.02 0.02 0.03 0.02 0.02 0.03 0.04 0.04 0.03 0.03 0.04
0.02 0.02 0.01 0.02 0.02 0.02 0.02 0.01 0.01 0.02 0.02 0.03 0.03 0.03 0.04 0.04 0.04 0.03 0.03 0.03 0.04 0.03 0.03 0.03 0.04 0.04 0.04 0.03 0.03 0.02 0.02 0.02 0.02 0.02 0.03 0.02 0.02 0.02 0.03 0.04 0.04 0.04 0.04
0.02 0.02 0.02 0.02 0.03 0.03 0.02 0.02 0.02 0.02 0.02 0.02 0.03 0.02 0.02 0.03 0.03 0.03 0.04 0.05 0.05 0.04 0.04 0.03 0.03 0.04 0.04 0.03 0.03 0.03 0.03 0.02 0.02 0.02 0.02 0.02 0.02 0.02 0.02 0.02 0.03 0.03 0.03
0.02 0.03 0.02 0.02 0.02 0.03 0.02 0.02 0.02 0.03 0.04 0.05 0.04 0.03 0.03 0.03 0.02 0.02 0.02 0.03 0.05 0.05 0.04 0.03 0.02 0.02 0.03 0.05 0.04 0.03 0.03 0.02 0.02 0.03 0.03 0.02 0.02 0.02 0.03 0.03 0.04 0.03 0.03
0.05 0.04 0.04 0.03 0.04 0.04 0.04 0.03 0.02 0.02 0.02 0.03 0.05 0.06 0.04 0.04 0.03 0.02 0.02 0.03 0.04 0.04 0.04 0.04 0.03 0.03 0.03 0.03 0.04 0.03 0.02 0.02 0.02 0.02 0.03 0.04 0.04 0.03 0.04 0.05 0.05 0.04 0.03
0.03 0.03 0.03 0.03 0.04 0.04 0.05 0.04 0.03 0.03 0.01 0.01 0.02 0.04 0.06 0.03 0.03 0.02 0.02 0.03 0.03 0.03 0.02 0.02 0.02 0.03 0.03 0.03 0.03 0.02 0.01 0.01 0.02 0.02 0.02 0.03 0.04 0.04 0.04 0.04 0.03 0.04 0.03
0.01 0.01 0.01 0.02 0.02 0.03 0.04 0.05 0.05 0.04 0.03 0.02 0.01 0.01 0.03 0.03 0.03 0.03 0.03 0.02 0.02 0.02 0.01 0.02 0.02 0.03 0.02 0.02 0.02 0.02 0.02 0.02 0.01 0.02 0.02 0.02 0.03 0.03 0.03 0.03 0.03 0.04 0.03
0.01 0.01 0.01 0.02 0.03 0.03 0.03 0.03 0.04 0.05 0.05 0.03 0.02 0.01 0.01 0.02 0.03 0.04 0.04 0.03 0.02 0.02 0.01 0.02 0.02 0.03 0.02 0.01 0.01 0.02 0.01 0.01 0.02 0.02 0.02 0.02 0.02 0.02 0.02 0.03 0.03 0.04 0.04
0.02 0.02 0.03 0.03 0.04 0.03 0.02 0.02 0.03 0.03 0.04 0.03 0.02 0.01 0.01 0.01 0.02 0.02 0.03 0.03 0.02 0.02 0.02 0.02 0.03 0.03 0.03 0.03 0.02 0.02 0.02 0.02 0.02 0.03 0.03 0.02 0.02 0.02 0.02 0.02 0.03 0.02 0.02
0.02 0.02 0.03 0.04 0.03 0.02 0.01 0.01 0.01 0.01 0.02 0.02 0.02 0.01 0.01 0.01 0.02 0.02 0.02 0.02 0.02 0.02 0.02 0.03 0.03 0.03 0.02 0.03 0.02 0.02 0.02 0.03 0.04 0.04 0.03 0.02 0.02 0.02 0.03 0.03 0.04 0.04 0.03
MSLP
1011.85 1012.20 1012.56 1012.95 1013.36 1013.80 1014.26 1014.71 1015.13 1015.51 1015.82 1016.07 1016.26 1016.39 1016.49 1016.58 1016.69 1016.80 1016.94 1017.10 1017.25 1017.40 1017.54 1017.67 1017.80 1017.94 1018.11 1018.31 1018.55 1018.82 1019.11 1019.37 1019.59 1019.75 1019.84 1019.86 1019.83 1019.76 1019.69 1019.63 1019.59 1019.58 1019.58
1011.32 1011.70 1012.10 1012.51 1012.95 1013.40 1013.88 1014.35 1014.82 1015.25 1015.64 1015.96 1016.21 1016.40 1016.54 1016.64 1016.72 1016.81 1016.91 1017.04 1017.18 1017.33 1017.49 1017.66 1017.82 1018.00 1018.18 1018.39 1018.61 1018.85 1019.10 1019.33 1019.53 1019.69 1019.80 1019.86 1019.87 1019.85 1019.82 1019.79 1019.78 1019.78 1019.81
1010.65 1011.06 1011.50 1011.95 1012.42 1012.90 1013.40 1013.91 1014.42 1014.91 1015.37 1015.76 1016.09 1016.34 1016.51 1016.63 1016.72 1016.79 1016.88 1016.98 1017.11 1017.28 1017.46 1017.66 1017.86 1018.06 1018.26 1018.46 1018.66 1018.86 1019.06 1019.25 1019.43 1019.58 1019.70 1019.79 1019.84 1019.87 1019.88 1019.89 1019.90 1019.92 1019.96
1009.86 1010.31 1010.78 1011.28 1011.78 1012.30 1012.83 1013.37 1013.92 1014.47 1014.99 1015.46 1015.86 1016.17 1016.40 1016.56 1016.66 1016.74 1016.82 1016.92 1017.05 1017.23 1017.44 1017.66 1017.90 1018.12 1018.33 1018.52 1018.69 1018.85 1019.01 1019.15 1019.30 1019.44 1019.57 1019.68 1019.77 1019.83 1019.88 1019.91 1019.94 1019.98 1020.04
1008.99 1009.47 1009.98 1010.51 1011.05 1011.60 1012.16 1012.73 1013.32 1013.92 1014.49 1015.03 1015.49 1015.88 1016.17 1016.37 1016.51 1016.61 1016.70 1016.81 1016.96 1017.16 1017.39 1017.64 1017.89 1018.13 1018.35 1018.52 1018.67 1018.80 1018.91 1019.02 1019.14 1019.27 1019.40 1019.53 1019.65 1019.74 1019.82 1019.87 1019.91 1019.96 1020.02
1008.08 1008.56 1009.10 1009.67 1010.24 1010.81 1011.40 1012.00 1012.61 1013.24 1013.86 1014.45 1014.98 1015.43 1015.78 1016.04 1016.23 1016.36 1016.48 1016.62 1016.79 1017.00 1017.25 1017.52 1017.79 1018.04 1018.26 1018.43 1018.56 1018.66 1018.75 1018.84 1018.94 1019.06 1019.20 1019.34 1019.48 1019.60 1019.69 1019.76 1019.81 1019.85 1019.91
1007.13 1007.61 1008.16 1008.74 1009.33 1009.93 1010.53 1011.14 1011.78 1012.43 1013.09 1013.72 1014.31 1014.82 1015.23 1015.55 1015.79 1015.97 1016.13 1016.29 1016.48 1016.70 1016.97 1017.25 1017.54 1017.80 1018.02 1018.20 1018.33 1018.42 1018.49 1018.57 1018.67 1018.79 1018.94 1019.10 1019.26 1019.41 1019.52 1019.59 1019.64 1019.68 1019.73
1006.17 1006.62 1007.16 1007.74 1008.34 1008.94 1009.55 1010.17 1010.82 1011.49 1012.18 1012.85 1013.48 1014.05 1014.53 1014.91 1015.20 1015.43 1015.62 1015.80 1016.01 1016.25 1016.52 1016.81 1017.11 1017.38 1017.62 1017.80 1017.94 1018.05 1018.13 1018.22 1018.33 1018.47 1018.64 1018.82 1019.00 1019.17 1019.30 1019.39 1019.44 1019.47 1019.51
1005.21 1005.61 1006.12 1006.68 1007.27 1007.86 1008.47 1009.10 1009.76 1010.45 1011.16 1011.87 1012.54 1013.16 1013.69 1014.13 1014.48 1014.75 1014.97 1015.18 1015.40 1015.65 1015.92 1016.22 1016.53 1016.81 1017.07 1017.27 1017.44 1017.57 1017.68 1017.80 1017.94 1018.10 1018.29 1018.50 1018.71 1018.90 1019.05 1019.16 1019.23 1019.26 1019.30
1004.27 1004.61 1005.06 1005.58 1006.14 1006.72 1007.32 1007.95 1008.62 1009.33 1010.07 1010.81 1011.54 1012.20 1012.79 1013.29 1013.68 1013.99 1014.25 1014.48 1014.71 1014.96 1015.24 1015.54 1015.85 1016.15 1016.42 1016.66 1016.87 1017.03 1017.19 1017.34 1017.51 1017.70 1017.92 1018.16 1018.40 1018.62 1018.80 1018.93 1019.02 1019.08 1019.12
1003.41 1003.66 1004.03 1004.49 1005.00 1005.54 1006.13 1006.76 1007.45 1008.18 1008.95 1009.74 1010.51 1011.24 1011.88 1012.42 1012.87 1013.22 1013.51 1013.76 1014.00 1014.25 1014.53 1014.83 1015.15 1015.46 1015.76 1016.03 1016.27 1016.48 1016.68 1016.87 1017.07 1017.30 1017.54 1017.80 1018.07 1018.31 1018.53 1018.70 1018.83 1018.92 1018.98
1002.66 1002.80 1003.08 1003.45 1003.90 1004.40 1004.97 1005.60 1006.30 1007.06 1007.87 1008.70 1009.52 1010.30 1010.99 1011.59 1012.08 1012.47 1012.79 1013.07 1013.32 1013.58 1013.86 1014.17 1014.49 1014.82 1015.13 1015.43 1015.71 1015.95 1016.18 1016.40 1016.63 1016.88 1017.14 1017.42 1017.70 1017.98 1018.23 1018.45 1018.62 1018.75 1018.85
1002.07 1002.10 1002.26 1002.53 1002.90 1003.35 1003.89 1004.51 1005.22 1006.01 1006.85 1007.72 1008.58 1009.40 1010.14 1010.78 1011.32 1011.76 1012.11 1012.42 1012.69 1012.96 1013.25 1013.56 1013.88 1014.22 1014.55 1014.87 1015.16 1015.43 1015.68 1015.92 1016.16 1016.42 1016.69 1016.98 1017.28 1017.58 1017.87 1018.13 1018.35 1018.54 1018.69
1001.67 1001.57 1001.61 1001.77 1002.05 1002.44 1002.93 1003.53 1004.24 1005.03 1005.89 1006.78 1007.67 1008.52 1009.30 1009.98 1010.56 1011.04 1011.44 1011.77 1012.08 1012.37 1012.67 1012.98 1013.31 1013.65 1013.98 1014.31 1014.61 1014.89 1015.14 1015.39 1015.63 1015.89 1016.16 1016.45 1016.76 1017.07 1017.39 1017.70 1017.98 1018.23 1018.44
1001.46 1001.24 1001.15 1001.20 1001.38 1001.69 1002.13 1002.69 1003.37 1004.15 1005.00 1005.89 1006.78 1007.64 1008.44 1009.15 1009.76 1010.28 1010.71 1011.09 1011.42 1011.74 1012.05 1012.38 1012.71 1013.05 1013.38 1013.70 1013.99 1014.27 1014.52 1014.76 1015.00 1015.24 1015.51 1015.80 1016.11 1016.44 1016.79 1017.13 1017.46 1017.77 1018.04
1001.41 1001.07 1000.87 1000.81 1000.90 1001.12 1001.49 1002.00 1002.63 1003.36 1004.17 1005.03 1005.89 1006.73 1007.52 1008.24 1008.87 1009.42 1009.89 1010.30 1010.67 1011.02 1011.36 1011.69 1012.02 1012.36 1012.68 1012.99 1013.27 1013.54 1013.78 1014.01 1014.24 1014.48 1014.74 1015.02 1015.34 1015.68 1016.04 1016.42 1016.79 1017.14 1017.47
1001.48 1001.05 1000.76 1000.60 1000.60 1000.75 1001.04 1001.47 1002.02 1002.68 1003.41 1004.19 1004.99 1005.78 1006.54 1007.24 1007.88 1008.45 1008.95 1009.40 1009.81 1010.19 1010.55 1010.90 1011.23 1011.56 1011.87 1012.17 1012.44 1012.69 1012.93 1013.16 1013.39 1013.62 1013.88 1014.17 1014.48 1014.83 1015.20 1015.59 1015.99 1016.37 1016.74
1001.65 1001.16 1000.80 1000.57 1000.50 1000.57 1000.78 1001.12 1001.58 1002.13 1002.75 1003.43 1004.13 1004.85 1005.54 1006.21 1006.84 1007.41 1007.94 1008.42 1008.87 1009.28 1009.66 1010.03 1010.37 1010.69 1011.00 1011.28 1011.55 1011.80 1012.03 1012.26 1012.50 1012.74 1013.01 1013.30 1013.61 1013.96 1014.33 1014.72 1015.12 1015.51 1015.89
1001.90 1001.38 1000.98 1000.72 1000.60 1000.61 1000.75 1000.99 1001.34 1001.76 1002.26 1002.81 1003.40 1004.01 1004.63 1005.24 1005.84 1006.41 1006.96 1007.47 1007.94 1008.38 1008.79 1009.17 1009.52 1009.85 1010.15 1010.43 1010.69 1010.95 1011.19 1011.43 1011.68 1011.93 1012.21 1012.50 1012.82 1013.16 1013.51 1013.88 1014.25 1014.62 1014.99
1002.24 1001.73 1001.34 1001.08 1000.94 1000.91 1000.97 1001.13 1001.36 1001.66 1002.02 1002.43 1002.89 1003.39 1003.91 1004.47 1005.03 1005.59 1006.14 1006.66 1007.17 1007.63 1008.06 1008.46 1008.82 1009.15 1009.45 1009.73 1010.00 1010.25 1010.51 1010.76 1011.02 1011.29 1011.57 1011.86 1012.17 1012.48 1012.80 1013.12 1013.45 1013.77 1014.10
1002.72 1002.25 1001.91 1001.67 1001.54 1001.49 1001.51 1001.58 1001.71 1001.88 1002.11 1002.38 1002.71 1003.09 1003.52 1004.00 1004.52 1005.06 1005.61 1006.14 1006.66 1007.15 1007.59 1008.00 1008.37 1008.70 1009.00 1009.28 1009.55 1009.81 1010.06 1010.33 1010.59 1010.86 1011.14 1011.41 1011.69 1011.96 1012.23 1012.49 1012.74 1013.00 1013.25
1003.38 1003.00 1002.72 1002.54 1002.43 1002.38 1002.36 1002.37 1002.41 1002.47 1002.57 1002.71 1002.92 1003.19 1003.54 1003.94 1004.41 1004.92 1005.45 1005.98 1006.51 1007.00 1007.45 1007.86 1008.23 1008.55 1008.85 1009.12 1009.38 1009.63 1009.88 1010.14 1010.39 1010.64 1010.89 1011.13 1011.36 1011.57 1011.77 1011.95 1012.12 1012.29 1012.46
1004.26 1003.98 1003.79 1003.68 1003.61 1003.56 1003.52 1003.48 1003.44 1003.40 1003.40 1003.43 1003.53 1003.70 1003.96 1004.30 1004.71 1005.18 1005.68 1006.20 1006.71 1007.19 1007.64 1008.04 1008.39 1008.71 1008.98 1009.23 1009.47 1009.69 1009.91 1010.13 1010.35 1010.56 1010.76 1010.94 1011.11 1011.25 1011.36 1011.46 1011.55 1011.63 1011.72
1005.36 1005.18 1005.09 1005.04 1005.01 1004.98 1004.92 1004.84 1004.73 1004.62 1004.52 1004.46 1004.47 1004.55 1004.73 1004.99 1005.35 1005.77 1006.23 1006.72 1007.20 1007.66 1008.08 1008.45 1008.78 1009.06 1009.30 1009.51 1009.70 1009.88 1010.04 1010.20 1010.36 1010.50 1010.63 1010.74 1010.83 1010.89 1010.93 1010.95 1010.96 1010.96 1010.98
1006.60 1006.53 1006.52 1006.53 1006.53 1006.51 1006.44 1006.32 1006.16 1005.98 1005.81 1005.67 1005.60 1005.61 1005.71 1005.91 1006.20 1006.56 1006.96 1007.40 1007.83 1008.25 1008.63 1008.96 1009.24 1009.48 1009.66 1009.82 1009.94 1010.05 1010.14 1010.22 1010.29 1010.35 1010.39 1010.42 1010.44 1010.43 1010.40 1010.36 1010.31 1010.26 1010.23
1007.89 1007.90 1007.95 1008.00 1008.03 1008.00 1007.91 1007.75 1007.55 1007.32 1007.09 1006.90 1006.76 1006.70 1006.74 1006.86 1007.08 1007.37 1007.72 1008.08 1008.46 1008.82 1009.14 1009.41 1009.64 1009.81 1009.93 1010.01 1010.05 1010.07 1010.07 1010.05 1010.03 1010.00 1009.96 1009.91 1009.86 1009.80 1009.73 1009.66 1009.58 1009.52 1009.46
Thickness
5783 5782 5780 5778 5774 5770 5765 5761 5756 5752 5748 5745 5741 5738 5735 5733 5731 5729 5726 5725 5724 5722 5720 5720 5718 5717 5716 5714 5713 5711 5709 5707 5707 5706 5705 5707 5708 5708 5708 5708 5709 5709 5709
5778 5777 5775 5774 5771 5767 5762 5758 5754 5750 5746 5743 5740 5737 5734 5731 5729 5727 5723 5722 5720 5718 5718 5716 5715 5714 5712 5710 5709 5707 5706 5705 5704 5702 5700 5700 5702 5703 5707 5706 5705 5706 5706
5774 5773 5772 5770 5769 5764 5760 5757 5752 5748 5744 5740 5737 5734 5730 5728 5726 5722 5720 5719 5717 5715 5714 5713 5712 5710 5710 5708 5706 5704 5702 5701 5701 5701 5699 5697 5697 5699 5703 5703 5703 5702 5702
5774 5773 5771 5768 5766 5763 5759 5754 5749 5744 5740 5737 5735 5731 5727 5724 5723 5721 5719 5716 5714 5712 5711 5709 5708 5707 5707 5705 5704 5703 5701 5698 5697 5698 5697 5697 5698 5694 5696 5699 5700 5699 5698
5773 5770 5769 5767 5764 5761 5757 5751 5746 5741 5737 5735 5732 5728 5726 5723 5721 5718 5715 5712 5712 5710 5709 5707 5705 5704 5704 5702 5701 5699 5697 5697 5696 5696 5696 5694 5692 5692 5690 5690 5693 5695 5697
5769 5767 5766 5763 5759 5757 5752 5748 5742 5737 5733 5731 5729 5725 5722 5719 5716 5713 5710 5709 5709 5708 5706 5704 5702 5701 5701 5699 5698 5696 5695 5695 5694 5693 5693 5692 5690 5689 5689 5687 5688 5689 5692
5763 5762 5759 5756 5753 5750 5748 5744 5738 5733 5730 5727 5725 5722 5719 5716 5712 5711 5709 5707 5707 5705 5703 5703 5700 5699 5698 5696 5696 5694 5694 5692 5690 5689 5690 5690 5690 5690 5687 5684 5684 5685 5688
5757 5755 5753 5750 5748 5745 5742 5740 5735 5730 5727 5724 5721 5719 5716 5714 5712 5709 5708 5706 5705 5704 5702 5700 5699 5697 5696 5695 5694 5693 5692 5690 5688 5688 5687 5686 5687 5686 5685 5682 5679 5678 5681
5749 5748 5747 5745 5743 5740 5737 5734 5730 5726 5723 5720 5717 5714 5712 5710 5708 5706 5705 5704 5702 5702 5700 5699 5697 5696 5695 5693 5691 5691 5689 5687 5686 5686 5684 5683 5683 5682 5682 5681 5679 5675 5673
5743 5742 5741 5739 5737 5735 5732 5729 5725 5723 5720 5717 5714 5712 5709 5707 5705 5704 5702 5701 5700 5699 5698 5697 5695 5694 5693 5691 5689 5688 5687 5685 5683 5682 5681 5679 5680 5679 5678 5678 5676 5675 5672
5737 5736 5734 5733 5732 5730 5727 5723 5720 5718 5715 5713 5710 5708 5706 5704 5702 5701 5700 5699 5698 5696 5695 5694 5693 5692 5690 5689 5686 5686 5684 5682 5681 5679 5678 5675 5675 5676 5676 5675 5673 5671 5669
5731 5730 5728 5727 5724 5722 5720 5716 5714 5713 5711 5709 5707 5705 5703 5701 5699 5698 5697 5696 5694 5694 5693 5692 5690 5689 5688 5686 5684 5682 5682 5680 5678 5676 5674 5673 5673 5671 5671 5670 5669 5668 5667
5723 5722 5719 5717 5716 5714 5712 5710 5708 5707 5706 5705 5703 5700 5699 5697 5696 5694 5694 5693 5692 5691 5690 5688 5687 5685 5684 5682 5681 5679 5678 5676 5675 5673 5671 5670 5669 5667 5667 5666 5666 5666 5665
5715 5713 5710 5709 5708 5706 5705 5704 5703 5702 5701 5699 5698 5695 5694 5693 5692 5691 5690 5689 5689 5687 5686 5685 5683 5682 5681 5679 5677 5676 5674 5672 5671 5670 5668 5667 5665 5664 5663 5662 5661 5661 5660
5708 5706 5704 5702 5701 5699 5698 5697 5696 5696 5695 5693 5692 5690 5689 5689 5688 5687 5686 5685 5684 5684 5683 5682 5680 5679 5678 5676 5673 5671 5670 5668 5667 5666 5664 5663 5661 5659 5658 5659 5658 5657 5656
5701 5701 5699 5697 5695 5694 5693 5692 5691 5690 5690 5688 5686 5685 5684 5683 5682 5682 5681 5680 5680 5679 5679 5678 5677 5675 5675 5670 5666 5665 5666 5664 5662 5661 5660 5660 5657 5655 5652 5652 5651 5651 5651
5695 5694 5693 5692 5691 5690 5689 5687 5686 5686 5684 5683 5682 5681 5679 5678 5678 5678 5676 5676 5675 5674 5674 5673 5672 5671 5668 5664 5661 5659 5660 5660 5659 5657 5656 5657 5657 5653 5652 5649 5647 5646 5645
5690 5689 5688 5687 5686 5684 5683 5682 5682 5680 5679 5678 5678 5677 5675 5674 5673 5672 5671 5671 5670 5669 5668 5668 5667 5666 5664 5659 5657 5655 5656 5657 5656 5655 5653 5651 5651 5650 5648 5648 5647 5646 5644
5684 5683 5684 5683 5680 5679 5678 5677 5676 5674 5673 5673 5673 5673 5672 5670 5668 5667 5667 5666 5666 5665 5664 5663 5662 5661 5659 5655 5652 5650 5653 5653 5652 5652 5650 5648 5647 5644 5641 5642 5642 5641 5641
5678 5677 5677 5676 5673 5672 5672 5670 5669 5668 5667 5667 5667 5668 5667 5665 5664 5663 5662 5662 5661 5660 5660 5659 5658 5657 5656 5651 5648 5645 5651 5650 5650 5648 5646 5643 5641 5638 5635 5636 5636 5635 5636
5670 5670 5669 5668 5666 5666 5666 5664 5663 5662 5663 5663 5662 5661 5661 5661 5660 5659 5658 5657 5657 5656 5655 5654 5654 5653 5651 5647 5643 5641 5645 5647 5646 5646 5644 5641 5635 5632 5630 5629 5631 5630 5629
5663 5664 5662 5660 5660 5660 5659 5658 5657 5657 5657 5657 5656 5655 5654 5656 5656 5654 5653 5653 5652 5652 5650 5649 5649 5649 5647 5643 5639 5637 5637 5637 5640 5640 5639 5636 5630 5626 5625 5625 5625 5623 5622
5656 5656 5655 5654 5653 5653 5654 5652 5651 5651 5651 5650 5650 5649 5648 5648 5648 5648 5648 5648 5648 5649 5649 5648 5646 5645 5644 5639 5635 5632 5631 5630 5632 5634 5631 5627 5623 5621 5621 5619 5618 5617 5619
5648 5648 5648 5647 5646 5647 5648 5647 5646 5646 5644 5642 5642 5642 5642 5642 5642 5641 5643 5643 5643 5643 5643 5642 5641 5640 5639 5637 5634 5631 5628 5624 5625 5625 5623 5619 5618 5617 5616 5615 5614 5614 5615
5641 5641 5641 5640 5641 5641 5641 5641 5640 5640 5638 5637 5637 5637 5638 5638 5636 5635 5635 5636 5635 5635 5634 5635 5635 5633 5631 5628 5623 5623 5624 5623 5621 5619 5618 5618 5617 5616 5615 5614 5613 5611 5610
5634 5634 5634 5634 5634 5635 5634 5635 5634 5633 5632 5631 5631 5632 5633 5633 5632 5631 5630 5626 5626 5624 5624 5623 5623 5624 5620 5617 5615 5613 5612 5610 5609 5610 5613 5612 5612 5611 5611 5610 5608 5607 5605